Location: B?ezina
(49.8085°N, 13.6013°E)
Time: 06:11:13
(UTC+00:00)

Cosmos 405 Rocket - Pass Details

Date: 19 May 2025
Orbit: 413 x 447 km, 81.2° (Epoch: 22 June)

Event Time Altitude Azimuth Distance (km) Brightness Sun altitude
Rises 21:38:08 0° 349° (N) 2,462 7.8 -17.8°
Reaches altitude 10° 21:40:14 10° 351° (N) 1,580 6.4 -17.9°
Maximum altitude 21:43:41 76° 77° (ENE) 462 2.3 -18.1°
Enters shadow 21:44:16 57° 144° (SE) 527 2.3 -18.1°
